Location: Hebron
(33.0265°N, 96.8636°W)
Time: 23:05:34
(UTC+00:00)

Okean 1 - Pass Details

Date: 05 July 2022
Orbit: 532 x 553 km, 82.5° (Epoch: 16 August)

Event Time Altitude Azimuth Distance (km) Brightness Sun altitude
Rises 10:21:20 0° 336° (NNW) 2,683 7.0 -11.9°
Reaches altitude 10° 10:23:53 10° 319° (NW) 1,786 5.9 -11.5°
Maximum altitude 10:26:49 20° 271° (W) 1,251 4.7 -11.0°
Enters shadow 10:28:35 15° 236° (SW) 1,467 4.8 -10.7°
